Year,Month,Day,Hour,Minute,Value (Times are PST for temperature in C)
2016,09,13,00,00,11.80
2016,09,13,00,01,11.80
2016,09,13,00,02,11.80
2016,09,13,00,03,11.80
2016,09,13,00,04,11.80
2016,09,13,00,05,11.70
2016,09,13,00,06,11.70
2016,09,13,00,07,11.70
2016,09,13,00,08,11.70
2016,09,13,00,09,11.70
2016,09,13,00,10,11.70
2016,09,13,00,11,11.70
2016,09,13,00,12,11.60
2016,09,13,00,13,11.60
2016,09,13,00,14,11.60
2016,09,13,00,15,11.60
2016,09,13,00,16,11.50
2016,09,13,00,17,11.50
2016,09,13,00,18,11.50
2016,09,13,00,19,11.50
2016,09,13,00,20,11.40
2016,09,13,00,21,11.40
2016,09,13,00,22,11.40
2016,09,13,00,23,11.40
2016,09,13,00,24,11.40
2016,09,13,00,25,11.40
2016,09,13,00,26,11.50
2016,09,13,00,27,11.50
2016,09,13,00,28,11.50
2016,09,13,00,29,11.40
2016,09,13,00,30,11.40
2016,09,13,00,31,11.40
2016,09,13,00,32,11.40
2016,09,13,00,33,11.40
2016,09,13,00,34,11.40
2016,09,13,00,35,11.40
2016,09,13,00,36,11.40
2016,09,13,00,37,11.40
2016,09,13,00,38,11.30
2016,09,13,00,39,11.30
2016,09,13,00,40,11.30
2016,09,13,00,41,11.30
2016,09,13,00,42,11.30
2016,09,13,00,43,11.20
2016,09,13,00,44,11.20
2016,09,13,00,45,11.20
2016,09,13,00,46,11.10
2016,09,13,00,47,11.10
2016,09,13,00,48,11.10
2016,09,13,00,49,11.10
2016,09,13,00,50,11.10
2016,09,13,00,51,11.10
2016,09,13,00,52,11.10
2016,09,13,00,53,11.10
2016,09,13,00,54,11.10
2016,09,13,00,55,11.10
2016,09,13,00,56,11.10
2016,09,13,00,57,11.10
2016,09,13,00,58,11.10
2016,09,13,00,59,11.10
2016,09,13,01,00,11.10
2016,09,13,01,01,11.10
2016,09,13,01,02,11.10
2016,09,13,01,03,11.10
2016,09,13,01,04,11.00
2016,09,13,01,05,11.00
2016,09,13,01,06,11.00
2016,09,13,01,07,11.00
2016,09,13,01,08,11.00
2016,09,13,01,09,11.10
2016,09,13,01,10,11.00
2016,09,13,01,11,11.00
2016,09,13,01,12,11.10
2016,09,13,01,13,11.10
2016,09,13,01,14,11.10
2016,09,13,01,15,11.00
2016,09,13,01,16,11.00
2016,09,13,01,17,10.90
2016,09,13,01,18,10.90
2016,09,13,01,19,10.90
2016,09,13,01,20,10.80
2016,09,13,01,21,10.80
2016,09,13,01,22,10.80
2016,09,13,01,23,10.80
2016,09,13,01,24,10.80
2016,09,13,01,25,10.80
2016,09,13,01,26,10.80
2016,09,13,01,27,10.70
2016,09,13,01,28,10.70
2016,09,13,01,29,10.70
2016,09,13,01,30,10.60
2016,09,13,01,31,10.60
2016,09,13,01,32,10.60
2016,09,13,01,33,10.60
2016,09,13,01,34,10.50
2016,09,13,01,35,10.50
2016,09,13,01,36,10.40
2016,09,13,01,37,10.40
2016,09,13,01,38,10.40
2016,09,13,01,39,10.30
2016,09,13,01,40,10.30
2016,09,13,01,41,10.30
2016,09,13,01,42,10.30
2016,09,13,01,43,10.20
2016,09,13,01,44,10.20
2016,09,13,01,45,10.20
2016,09,13,01,46,10.20
2016,09,13,01,47,10.20
2016,09,13,01,48,10.20
2016,09,13,01,49,10.20
2016,09,13,01,50,10.20
2016,09,13,01,51,10.10
2016,09,13,01,52,10.10
2016,09,13,01,53,10.10
2016,09,13,01,54,10.10
2016,09,13,01,55,10.00
2016,09,13,01,56,10.00
2016,09,13,01,57,10.00
2016,09,13,01,58,10.00
2016,09,13,01,59,10.00
2016,09,13,02,00,10.10
2016,09,13,02,01,10.10
2016,09,13,02,02,10.10
2016,09,13,02,03,10.10
2016,09,13,02,04,10.10
2016,09,13,02,05,10.10
2016,09,13,02,06,10.10
2016,09,13,02,07,10.10
2016,09,13,02,08,10.10
2016,09,13,02,09,10.00
2016,09,13,02,10,10.00
2016,09,13,02,11,10.00
2016,09,13,02,12,10.00
2016,09,13,02,13,9.90
2016,09,13,02,14,9.90
2016,09,13,02,15,9.90
2016,09,13,02,16,9.90
2016,09,13,02,17,9.90
2016,09,13,02,18,9.90
2016,09,13,02,19,9.90
2016,09,13,02,20,9.90
2016,09,13,02,21,9.90
2016,09,13,02,22,9.90
2016,09,13,02,23,9.80
2016,09,13,02,24,9.80
2016,09,13,02,25,9.80
2016,09,13,02,26,9.80
2016,09,13,02,27,9.80
2016,09,13,02,28,9.80
2016,09,13,02,29,9.80
2016,09,13,02,30,9.70
2016,09,13,02,31,9.70
2016,09,13,02,32,9.70
2016,09,13,02,33,9.70
2016,09,13,02,34,9.70
2016,09,13,02,35,9.70
2016,09,13,02,36,9.70
2016,09,13,02,37,9.70
2016,09,13,02,38,9.70
2016,09,13,02,39,9.70
2016,09,13,02,40,9.70
2016,09,13,02,41,9.60
2016,09,13,02,42,9.60
2016,09,13,02,43,9.60
2016,09,13,02,44,9.60
2016,09,13,02,45,9.60
2016,09,13,02,46,9.60
2016,09,13,02,47,9.50
2016,09,13,02,48,9.50
2016,09,13,02,49,9.50
2016,09,13,02,50,9.40
2016,09,13,02,51,9.40
2016,09,13,02,52,9.40
2016,09,13,02,53,9.40
2016,09,13,02,54,9.30
2016,09,13,02,55,9.30
2016,09,13,02,56,9.30
2016,09,13,02,57,9.30
2016,09,13,02,58,9.30
2016,09,13,02,59,9.20
2016,09,13,03,00,9.20
2016,09,13,03,01,9.20
2016,09,13,03,02,9.20
2016,09,13,03,03,9.10
2016,09,13,03,04,9.10
2016,09,13,03,05,9.00
2016,09,13,03,06,9.00
2016,09,13,03,07,8.90
2016,09,13,03,08,8.90
2016,09,13,03,09,8.90
2016,09,13,03,10,8.90
2016,09,13,03,11,8.90
2016,09,13,03,12,8.90
2016,09,13,03,13,8.90
2016,09,13,03,14,8.90
2016,09,13,03,15,8.90
2016,09,13,03,16,8.90
2016,09,13,03,17,8.80
2016,09,13,03,18,8.80
2016,09,13,03,19,8.80
2016,09,13,03,20,8.80
2016,09,13,03,21,8.80
2016,09,13,03,22,8.80
2016,09,13,03,23,8.80
2016,09,13,03,24,8.80
2016,09,13,03,25,8.80
2016,09,13,03,26,8.80
2016,09,13,03,27,8.80
2016,09,13,03,28,8.80
2016,09,13,03,29,8.80
2016,09,13,03,30,8.80
2016,09,13,03,31,8.80
2016,09,13,03,32,8.80
2016,09,13,03,33,8.80
2016,09,13,03,34,8.80
2016,09,13,03,35,8.80
2016,09,13,03,36,8.80
2016,09,13,03,37,8.80
2016,09,13,03,38,8.80
2016,09,13,03,39,8.90
2016,09,13,03,40,8.90
2016,09,13,03,41,8.90
2016,09,13,03,42,8.90
2016,09,13,03,43,8.90
2016,09,13,03,44,8.90
2016,09,13,03,45,8.90
2016,09,13,03,46,8.90
2016,09,13,03,47,8.90
2016,09,13,03,48,8.90
2016,09,13,03,49,8.90
2016,09,13,03,50,8.90
2016,09,13,03,51,8.90
2016,09,13,03,52,8.90
2016,09,13,03,53,8.90
2016,09,13,03,54,8.90
2016,09,13,03,55,8.90
2016,09,13,03,56,8.90
2016,09,13,03,57,8.90
2016,09,13,03,58,8.90
2016,09,13,03,59,8.90
2016,09,13,04,00,8.90
2016,09,13,04,01,8.90
2016,09,13,04,02,8.90
2016,09,13,04,03,8.90
2016,09,13,04,04,8.80
2016,09,13,04,05,8.80
2016,09,13,04,06,8.80
2016,09,13,04,07,8.80
2016,09,13,04,08,8.80
2016,09,13,04,09,8.80
2016,09,13,04,10,8.80
2016,09,13,04,11,8.70
2016,09,13,04,12,8.70
2016,09,13,04,13,8.70
2016,09,13,04,14,8.70
2016,09,13,04,15,8.70
2016,09,13,04,16,8.60
2016,09,13,04,17,8.60
2016,09,13,04,18,8.60
2016,09,13,04,19,8.60
2016,09,13,04,20,8.60
2016,09,13,04,21,8.60
2016,09,13,04,22,8.60
2016,09,13,04,23,8.60
2016,09,13,04,24,8.60
2016,09,13,04,25,8.60
2016,09,13,04,26,8.50
2016,09,13,04,27,8.50
2016,09,13,04,28,8.50
2016,09,13,04,29,8.50
2016,09,13,04,30,8.50
2016,09,13,04,31,8.50
2016,09,13,04,32,8.40
2016,09,13,04,33,8.40
2016,09,13,04,34,8.40
2016,09,13,04,35,8.40
2016,09,13,04,36,8.40
2016,09,13,04,37,8.40
2016,09,13,04,38,8.40
2016,09,13,04,39,8.40
2016,09,13,04,40,8.30
2016,09,13,04,41,8.30
2016,09,13,04,42,8.30
2016,09,13,04,43,8.30
2016,09,13,04,44,8.30
2016,09,13,04,45,8.30
2016,09,13,04,46,8.30
2016,09,13,04,47,8.30
2016,09,13,04,48,8.30
2016,09,13,04,49,8.30
2016,09,13,04,50,8.30
2016,09,13,04,51,8.30
2016,09,13,04,52,8.30
2016,09,13,04,53,8.30
2016,09,13,04,54,8.30
2016,09,13,04,55,8.30
2016,09,13,04,56,8.30
2016,09,13,04,57,8.30
2016,09,13,04,58,8.30
2016,09,13,04,59,8.30
2016,09,13,05,00,8.30
2016,09,13,05,01,8.30
2016,09,13,05,02,8.30
2016,09,13,05,03,8.30
2016,09,13,05,04,8.30
2016,09,13,05,05,8.20
2016,09,13,05,06,8.20
2016,09,13,05,07,8.20
2016,09,13,05,08,8.20
2016,09,13,05,09,8.20
2016,09,13,05,10,8.20
2016,09,13,05,11,8.20
2016,09,13,05,12,8.20
2016,09,13,05,13,8.20
2016,09,13,05,14,8.20
2016,09,13,05,15,8.20
2016,09,13,05,16,8.20
2016,09,13,05,17,8.20
2016,09,13,05,18,8.20
2016,09,13,05,19,8.10
2016,09,13,05,20,8.10
2016,09,13,05,21,8.10
2016,09,13,05,22,8.10
2016,09,13,05,23,8.10
2016,09,13,05,24,8.10
2016,09,13,05,25,8.10
2016,09,13,05,26,8.00
2016,09,13,05,27,8.00
2016,09,13,05,28,8.00
2016,09,13,05,29,8.00
2016,09,13,05,30,7.90
2016,09,13,05,31,7.90
2016,09,13,05,32,7.90
2016,09,13,05,33,7.90
2016,09,13,05,34,7.80
2016,09,13,05,35,7.80
2016,09,13,05,36,7.80
2016,09,13,05,37,7.80
2016,09,13,05,38,7.80
2016,09,13,05,39,7.80
2016,09,13,05,40,7.80
2016,09,13,05,41,7.80
2016,09,13,05,42,7.80
2016,09,13,05,43,7.80
2016,09,13,05,44,7.80
2016,09,13,05,45,7.80
2016,09,13,05,46,7.80
2016,09,13,05,47,7.80
2016,09,13,05,48,7.90
2016,09,13,05,49,7.90
2016,09,13,05,50,7.90
2016,09,13,05,51,7.90
2016,09,13,05,52,7.80
2016,09,13,05,53,7.80
2016,09,13,05,54,7.80
2016,09,13,05,55,7.80
2016,09,13,05,56,7.80
2016,09,13,05,57,7.80
2016,09,13,05,58,7.80
2016,09,13,05,59,7.70
2016,09,13,06,00,7.70
2016,09,13,06,01,7.70
2016,09,13,06,02,7.70
2016,09,13,06,03,7.70
2016,09,13,06,04,7.70
2016,09,13,06,05,7.70
2016,09,13,06,06,7.70
2016,09,13,06,07,7.70
2016,09,13,06,08,7.70
2016,09,13,06,09,7.70
2016,09,13,06,10,7.70
2016,09,13,06,11,7.70
2016,09,13,06,12,7.70
2016,09,13,06,13,7.70
2016,09,13,06,14,7.60
2016,09,13,06,15,7.60
2016,09,13,06,16,7.60
2016,09,13,06,17,7.60
2016,09,13,06,18,7.60
2016,09,13,06,19,7.60
2016,09,13,06,20,7.60
2016,09,13,06,21,7.60
2016,09,13,06,22,7.60
2016,09,13,06,23,7.60
2016,09,13,06,24,7.60
2016,09,13,06,25,7.60
2016,09,13,06,26,7.60
2016,09,13,06,27,7.50
2016,09,13,06,28,7.50
2016,09,13,06,29,7.50
2016,09,13,06,30,7.50
2016,09,13,06,31,7.50
2016,09,13,06,32,7.50
2016,09,13,06,33,7.50
2016,09,13,06,34,7.50
2016,09,13,06,35,7.40
2016,09,13,06,36,7.40
2016,09,13,06,37,7.40
2016,09,13,06,38,7.40
2016,09,13,06,39,7.40
2016,09,13,06,40,7.40
2016,09,13,06,41,7.40
2016,09,13,06,42,7.40
2016,09,13,06,43,7.30
2016,09,13,06,44,7.30
2016,09,13,06,45,7.30
2016,09,13,06,46,7.30
2016,09,13,06,47,7.30
2016,09,13,06,48,7.30
2016,09,13,06,49,7.30
2016,09,13,06,50,7.30
2016,09,13,06,51,7.30
2016,09,13,06,52,7.30
2016,09,13,06,53,7.30
2016,09,13,06,54,7.30
2016,09,13,06,55,7.20
2016,09,13,06,56,7.20
2016,09,13,06,57,7.20
2016,09,13,06,58,7.20
2016,09,13,06,59,7.20
2016,09,13,07,00,7.20
2016,09,13,07,01,7.20
2016,09,13,07,02,7.20
2016,09,13,07,03,7.20
2016,09,13,07,04,7.20
2016,09,13,07,05,7.20
2016,09,13,07,06,7.20
2016,09,13,07,07,7.20
2016,09,13,07,08,7.20
2016,09,13,07,09,7.20
2016,09,13,07,10,7.20
2016,09,13,07,11,7.20
2016,09,13,07,12,7.20
2016,09,13,07,13,7.20
2016,09,13,07,14,7.20
2016,09,13,07,15,7.20
2016,09,13,07,16,7.20
2016,09,13,07,17,7.20
2016,09,13,07,18,7.20
2016,09,13,07,19,7.20
2016,09,13,07,20,7.20
2016,09,13,07,21,7.20
2016,09,13,07,22,7.20
2016,09,13,07,23,7.20
2016,09,13,07,24,7.30
2016,09,13,07,25,7.30
2016,09,13,07,26,7.30
2016,09,13,07,27,7.40
2016,09,13,07,28,7.40
2016,09,13,07,29,7.40
2016,09,13,07,30,7.40
2016,09,13,07,31,7.40
2016,09,13,07,32,7.50
2016,09,13,07,33,7.50
2016,09,13,07,34,7.60
2016,09,13,07,35,7.60
2016,09,13,07,36,7.60
2016,09,13,07,37,7.70
2016,09,13,07,38,7.70
2016,09,13,07,39,7.70
2016,09,13,07,40,7.80
2016,09,13,07,41,7.80
2016,09,13,07,42,7.90
2016,09,13,07,43,7.90
2016,09,13,07,44,8.00
2016,09,13,07,45,8.00
2016,09,13,07,46,8.00
2016,09,13,07,47,8.10
2016,09,13,07,48,8.10
2016,09,13,07,49,8.10
2016,09,13,07,50,8.10
2016,09,13,07,51,8.20
2016,09,13,07,52,8.20
2016,09,13,07,53,8.20
2016,09,13,07,54,8.20
2016,09,13,07,55,8.20
2016,09,13,07,56,8.30
2016,09,13,07,57,8.30
2016,09,13,07,58,8.30
2016,09,13,07,59,8.30
2016,09,13,08,00,8.30
2016,09,13,08,01,8.30
2016,09,13,08,02,8.40
2016,09,13,08,03,8.40
2016,09,13,08,04,8.40
2016,09,13,08,05,8.40
2016,09,13,08,06,8.50
2016,09,13,08,07,8.50
2016,09,13,08,08,8.60
2016,09,13,08,09,8.60
2016,09,13,08,10,8.60
2016,09,13,08,11,8.70
2016,09,13,08,12,8.70
2016,09,13,08,13,8.80
2016,09,13,08,14,8.80
2016,09,13,08,15,8.80
2016,09,13,08,16,8.90
2016,09,13,08,17,8.90
2016,09,13,08,18,9.00
2016,09,13,08,19,9.10
2016,09,13,08,20,9.10
2016,09,13,08,21,9.20
2016,09,13,08,22,9.20
2016,09,13,08,23,9.30
2016,09,13,08,24,9.30
2016,09,13,08,25,9.30
2016,09,13,08,26,9.30
2016,09,13,08,27,9.40
2016,09,13,08,28,9.40
2016,09,13,08,29,9.50
2016,09,13,08,30,9.50
2016,09,13,08,31,9.50
2016,09,13,08,32,9.60
2016,09,13,08,33,9.60
2016,09,13,08,34,9.60
2016,09,13,08,35,9.70
2016,09,13,08,36,9.70
2016,09,13,08,37,9.80
2016,09,13,08,38,9.80
2016,09,13,08,39,9.80
2016,09,13,08,40,9.90
2016,09,13,08,41,9.90
2016,09,13,08,42,10.00
2016,09,13,08,43,10.00
2016,09,13,08,44,10.10
2016,09,13,08,45,10.20
2016,09,13,08,46,10.20
2016,09,13,08,47,10.30
2016,09,13,08,48,10.30
2016,09,13,08,49,10.40
2016,09,13,08,50,10.50
2016,09,13,08,51,10.60
2016,09,13,08,52,10.70
2016,09,13,08,53,10.80
2016,09,13,08,54,10.80
2016,09,13,08,55,10.90
2016,09,13,08,56,11.00
2016,09,13,08,57,11.10
2016,09,13,08,58,11.20
2016,09,13,08,59,11.40
2016,09,13,09,00,11.50
2016,09,13,09,01,11.50
2016,09,13,09,02,11.60
2016,09,13,09,03,11.80
2016,09,13,09,04,11.80
2016,09,13,09,05,11.90
2016,09,13,09,06,12.00
2016,09,13,09,07,12.10
2016,09,13,09,08,12.20
2016,09,13,09,09,12.20
2016,09,13,09,10,12.30
2016,09,13,09,11,12.40
2016,09,13,09,12,12.50
2016,09,13,09,13,12.60
2016,09,13,09,14,12.70
2016,09,13,09,15,12.80
2016,09,13,09,16,12.90
2016,09,13,09,17,13.00
2016,09,13,09,18,13.10
2016,09,13,09,19,13.20
2016,09,13,09,20,13.30
2016,09,13,09,21,13.40
2016,09,13,09,22,13.50
2016,09,13,09,23,13.50
2016,09,13,09,24,13.60
2016,09,13,09,25,13.70
2016,09,13,09,26,13.70
2016,09,13,09,27,13.80
2016,09,13,09,28,13.80
2016,09,13,09,29,13.90
2016,09,13,09,30,13.90
2016,09,13,09,31,14.00
2016,09,13,09,32,14.10
2016,09,13,09,33,14.10
2016,09,13,09,34,14.20
2016,09,13,09,35,14.30
2016,09,13,09,36,14.40
2016,09,13,09,37,14.40
2016,09,13,09,38,14.50
2016,09,13,09,39,14.60
2016,09,13,09,40,14.70
2016,09,13,09,41,14.70
2016,09,13,09,42,14.80
2016,09,13,09,43,14.80
2016,09,13,09,44,14.90
2016,09,13,09,45,14.90
2016,09,13,09,46,15.00
2016,09,13,09,47,15.00
2016,09,13,09,48,15.00
2016,09,13,09,49,15.00
2016,09,13,09,50,15.10
2016,09,13,09,51,15.20
2016,09,13,09,52,15.30
2016,09,13,09,53,15.40
2016,09,13,09,54,15.50
2016,09,13,09,55,15.50
2016,09,13,09,56,15.60
2016,09,13,09,57,15.70
2016,09,13,09,58,15.80
2016,09,13,09,59,15.80
2016,09,13,10,00,15.90
2016,09,13,10,01,15.90
2016,09,13,10,02,16.00
2016,09,13,10,03,16.00
2016,09,13,10,04,16.10
2016,09,13,10,05,16.10
2016,09,13,10,06,16.20
2016,09,13,10,07,16.20
2016,09,13,10,08,16.30
2016,09,13,10,09,16.40
2016,09,13,10,10,16.50
2016,09,13,10,11,16.50
2016,09,13,10,12,16.60
2016,09,13,10,13,16.70
2016,09,13,10,14,16.80
2016,09,13,10,15,16.90
2016,09,13,10,16,17.00
2016,09,13,10,17,17.00
2016,09,13,10,18,17.10
2016,09,13,10,19,17.10
2016,09,13,10,20,17.20
2016,09,13,10,21,17.20
2016,09,13,10,22,17.30
2016,09,13,10,23,17.30
2016,09,13,10,24,17.40
2016,09,13,10,25,17.40
2016,09,13,10,26,17.50
2016,09,13,10,27,17.60
2016,09,13,10,28,17.70
2016,09,13,10,29,17.80
2016,09,13,10,30,17.80
2016,09,13,10,31,17.90
2016,09,13,10,32,18.00
2016,09,13,10,33,18.10
2016,09,13,10,34,18.20
2016,09,13,10,35,18.30
2016,09,13,10,36,18.40
2016,09,13,10,37,18.50
2016,09,13,10,38,18.60
2016,09,13,10,39,18.60
2016,09,13,10,40,18.70
2016,09,13,10,41,18.80
2016,09,13,10,42,18.90
2016,09,13,10,43,19.00
2016,09,13,10,44,19.00
2016,09,13,10,45,19.20
2016,09,13,10,46,19.30
2016,09,13,10,47,19.30
2016,09,13,10,48,19.40
2016,09,13,10,49,19.40
2016,09,13,10,50,19.40
2016,09,13,10,51,19.40
2016,09,13,10,52,19.40
2016,09,13,10,53,19.40
2016,09,13,10,54,19.40
2016,09,13,10,55,19.40
2016,09,13,10,56,19.40
2016,09,13,10,57,19.40
2016,09,13,10,58,19.40
2016,09,13,10,59,19.40
2016,09,13,11,00,19.40
2016,09,13,11,01,19.40
2016,09,13,11,02,19.50
2016,09,13,11,03,19.50
2016,09,13,11,04,19.60
2016,09,13,11,05,19.60
2016,09,13,11,06,19.70
2016,09,13,11,07,19.80
2016,09,13,11,08,19.90
2016,09,13,11,09,19.90
2016,09,13,11,10,20.00
2016,09,13,11,11,20.10
2016,09,13,11,12,20.20
2016,09,13,11,13,20.20
2016,09,13,11,14,20.20
2016,09,13,11,15,20.30
2016,09,13,11,16,20.30
2016,09,13,11,17,20.30
2016,09,13,11,18,20.40
2016,09,13,11,19,20.40
2016,09,13,11,20,20.40
2016,09,13,11,21,20.50
2016,09,13,11,22,20.60
2016,09,13,11,23,20.70
2016,09,13,11,24,20.70
2016,09,13,11,25,20.80
2016,09,13,11,26,20.80
2016,09,13,11,27,20.90
2016,09,13,11,28,20.90
2016,09,13,11,29,20.90
2016,09,13,11,30,21.00
2016,09,13,11,31,21.10
2016,09,13,11,32,21.10
2016,09,13,11,33,21.20
2016,09,13,11,34,21.20
2016,09,13,11,35,21.20
2016,09,13,11,36,21.20
2016,09,13,11,37,21.20
2016,09,13,11,38,21.30
2016,09,13,11,39,21.30
2016,09,13,11,40,21.30
2016,09,13,11,41,21.40
2016,09,13,11,42,21.40
2016,09,13,11,43,21.40
2016,09,13,11,44,21.40
2016,09,13,11,45,21.40
2016,09,13,11,46,21.30
2016,09,13,11,47,21.30
2016,09,13,11,48,21.40
2016,09,13,11,49,21.40
2016,09,13,11,50,21.50
2016,09,13,11,51,21.60
2016,09,13,11,52,21.60
2016,09,13,11,53,21.60
2016,09,13,11,54,21.60
2016,09,13,11,55,21.60
2016,09,13,11,56,21.60
2016,09,13,11,57,21.60
2016,09,13,11,58,21.50
2016,09,13,11,59,21.50
2016,09,13,12,00,21.50
2016,09,13,12,01,21.50
2016,09,13,12,02,21.50
2016,09,13,12,03,21.50
2016,09,13,12,04,21.50
2016,09,13,12,05,21.50
2016,09,13,12,06,21.50
2016,09,13,12,07,21.60
2016,09,13,12,08,21.60
2016,09,13,12,09,21.60
2016,09,13,12,10,21.70
2016,09,13,12,11,21.80
2016,09,13,12,12,21.90
2016,09,13,12,13,22.00
2016,09,13,12,14,22.20
2016,09,13,12,15,22.30
2016,09,13,12,16,22.30
2016,09,13,12,17,22.40
2016,09,13,12,18,22.40
2016,09,13,12,19,22.50
2016,09,13,12,20,22.50
2016,09,13,12,21,22.60
2016,09,13,12,22,22.70
2016,09,13,12,23,22.70
2016,09,13,12,24,22.80
2016,09,13,12,25,22.90
2016,09,13,12,26,23.00
2016,09,13,12,27,23.10
2016,09,13,12,28,23.20
2016,09,13,12,29,23.30
2016,09,13,12,30,23.30
2016,09,13,12,31,23.30
2016,09,13,12,32,23.30
2016,09,13,12,33,23.30
2016,09,13,12,34,23.20
2016,09,13,12,35,23.10
2016,09,13,12,36,23.00
2016,09,13,12,37,23.00
2016,09,13,12,38,22.90
2016,09,13,12,39,22.80
2016,09,13,12,40,22.80
2016,09,13,12,41,22.90
2016,09,13,12,42,23.00
2016,09,13,12,43,23.00
2016,09,13,12,44,23.10
2016,09,13,12,45,23.20
2016,09,13,12,46,23.20
2016,09,13,12,47,23.20
2016,09,13,12,48,23.20
2016,09,13,12,49,23.20
2016,09,13,12,50,23.20
2016,09,13,12,51,23.20
2016,09,13,12,52,23.30
2016,09,13,12,53,23.30
2016,09,13,12,54,23.40
2016,09,13,12,55,23.40
2016,09,13,12,56,23.50
2016,09,13,12,57,23.60
2016,09,13,12,58,23.70
2016,09,13,12,59,23.80
2016,09,13,13,00,23.80
2016,09,13,13,01,23.90
2016,09,13,13,02,24.00
2016,09,13,13,03,24.00
2016,09,13,13,04,24.10
2016,09,13,13,05,24.10
2016,09,13,13,06,24.10
2016,09,13,13,07,24.10
2016,09,13,13,08,24.10
2016,09,13,13,09,24.20
2016,09,13,13,10,24.20
2016,09,13,13,11,24.20
2016,09,13,13,12,24.20
2016,09,13,13,13,24.20
2016,09,13,13,14,24.20
2016,09,13,13,15,24.20
2016,09,13,13,16,24.20
2016,09,13,13,17,24.20
2016,09,13,13,18,24.20
2016,09,13,13,19,24.10
2016,09,13,13,20,24.20
2016,09,13,13,21,24.20
2016,09,13,13,22,24.30
2016,09,13,13,23,24.30
2016,09,13,13,24,24.40
2016,09,13,13,25,24.40
2016,09,13,13,26,24.50
2016,09,13,13,27,24.60
2016,09,13,13,28,24.60
2016,09,13,13,29,24.70
2016,09,13,13,30,24.70
2016,09,13,13,31,24.70
2016,09,13,13,32,24.80
2016,09,13,13,33,24.80
2016,09,13,13,34,24.80
2016,09,13,13,35,24.70
2016,09,13,13,36,24.70
2016,09,13,13,37,24.70
2016,09,13,13,38,24.70
2016,09,13,13,39,24.80
2016,09,13,13,40,24.90
2016,09,13,13,41,24.90
2016,09,13,13,42,25.00
2016,09,13,13,43,25.10
2016,09,13,13,44,25.20
2016,09,13,13,45,25.20
2016,09,13,13,46,25.30
2016,09,13,13,47,25.30
2016,09,13,13,48,25.40
2016,09,13,13,49,25.40
2016,09,13,13,50,25.40
2016,09,13,13,51,25.40
2016,09,13,13,52,25.40
2016,09,13,13,53,25.40
2016,09,13,13,54,25.40
2016,09,13,13,55,25.40
2016,09,13,13,56,25.40
2016,09,13,13,57,25.30
2016,09,13,13,58,25.30
2016,09,13,13,59,25.30
2016,09,13,14,00,25.30
2016,09,13,14,01,25.30
2016,09,13,14,02,25.40
2016,09,13,14,03,25.40
2016,09,13,14,04,25.50
2016,09,13,14,05,25.50
2016,09,13,14,06,25.50
2016,09,13,14,07,25.50
2016,09,13,14,08,25.50
2016,09,13,14,09,25.50
2016,09,13,14,10,25.50
2016,09,13,14,11,25.60
2016,09,13,14,12,25.60
2016,09,13,14,13,25.60
2016,09,13,14,14,25.60
2016,09,13,14,15,25.60
2016,09,13,14,16,25.60
2016,09,13,14,17,25.60
2016,09,13,14,18,25.60
2016,09,13,14,19,25.60
2016,09,13,14,20,25.60
2016,09,13,14,21,25.70
2016,09,13,14,22,25.70
2016,09,13,14,23,25.80
2016,09,13,14,24,25.80
2016,09,13,14,25,25.80
2016,09,13,14,26,25.80
2016,09,13,14,27,25.80
2016,09,13,14,28,25.90
2016,09,13,14,29,25.90
2016,09,13,14,30,25.90
2016,09,13,14,31,25.90
2016,09,13,14,32,25.90
2016,09,13,14,33,25.90
2016,09,13,14,34,25.80
2016,09,13,14,35,25.80
2016,09,13,14,36,25.70
2016,09,13,14,37,25.70
2016,09,13,14,38,25.70
2016,09,13,14,39,25.80
2016,09,13,14,40,25.80
2016,09,13,14,41,25.90
2016,09,13,14,42,25.90
2016,09,13,14,43,25.90
2016,09,13,14,44,25.90
2016,09,13,14,45,25.90
2016,09,13,14,46,25.80
2016,09,13,14,47,25.80
2016,09,13,14,48,25.80
2016,09,13,14,49,25.90
2016,09,13,14,50,25.90
2016,09,13,14,51,25.90
2016,09,13,14,52,26.00
2016,09,13,14,53,26.10
2016,09,13,14,54,26.10
2016,09,13,14,55,26.10
2016,09,13,14,56,26.10
2016,09,13,14,57,26.20
2016,09,13,14,58,26.20
2016,09,13,14,59,26.20
2016,09,13,15,00,26.30
2016,09,13,15,01,26.30
2016,09,13,15,02,26.30
2016,09,13,15,03,26.40
2016,09,13,15,04,26.40
2016,09,13,15,05,26.40
2016,09,13,15,06,26.40
2016,09,13,15,07,26.40
2016,09,13,15,08,26.30
2016,09,13,15,09,26.30
2016,09,13,15,10,26.30
2016,09,13,15,11,26.30
2016,09,13,15,12,26.20
2016,09,13,15,13,26.20
2016,09,13,15,14,26.20
2016,09,13,15,15,26.10
2016,09,13,15,16,26.10
2016,09,13,15,17,26.10
2016,09,13,15,18,26.10
2016,09,13,15,19,26.10
2016,09,13,15,20,26.10
2016,09,13,15,21,26.10
2016,09,13,15,22,26.10
2016,09,13,15,23,26.10
2016,09,13,15,24,26.00
2016,09,13,15,25,26.00
2016,09,13,15,26,26.00
2016,09,13,15,27,25.90
2016,09,13,15,28,25.90
2016,09,13,15,29,25.90
2016,09,13,15,30,25.90
2016,09,13,15,31,25.90
2016,09,13,15,32,25.90
2016,09,13,15,33,25.80
2016,09,13,15,34,25.70
2016,09,13,15,35,25.70
2016,09,13,15,36,25.70
2016,09,13,15,37,25.60
2016,09,13,15,38,25.60
2016,09,13,15,39,25.60
2016,09,13,15,40,25.60
2016,09,13,15,41,25.60
2016,09,13,15,42,25.60
2016,09,13,15,43,25.70
2016,09,13,15,44,25.70
2016,09,13,15,45,25.60
2016,09,13,15,46,25.60
2016,09,13,15,47,25.50
2016,09,13,15,48,25.50
2016,09,13,15,49,25.50
2016,09,13,15,50,25.50
2016,09,13,15,51,25.50
2016,09,13,15,52,25.50
2016,09,13,15,53,25.60
2016,09,13,15,54,25.60
2016,09,13,15,55,25.70
2016,09,13,15,56,25.70
2016,09,13,15,57,25.60
2016,09,13,15,58,25.60
2016,09,13,15,59,25.60
2016,09,13,16,00,25.70
2016,09,13,16,01,25.70
2016,09,13,16,02,25.70
2016,09,13,16,03,25.70
2016,09,13,16,04,25.70
2016,09,13,16,05,25.80
2016,09,13,16,06,25.90
2016,09,13,16,07,25.90
2016,09,13,16,08,25.90
2016,09,13,16,09,25.90
2016,09,13,16,10,25.90
2016,09,13,16,11,26.00
2016,09,13,16,12,26.10
2016,09,13,16,13,26.10
2016,09,13,16,14,26.10
2016,09,13,16,15,26.20
2016,09,13,16,16,26.20
2016,09,13,16,17,26.20
2016,09,13,16,18,26.20
2016,09,13,16,19,26.20
2016,09,13,16,20,26.20
2016,09,13,16,21,26.20
2016,09,13,16,22,26.20
2016,09,13,16,23,26.20
2016,09,13,16,24,26.10
2016,09,13,16,25,25.90
2016,09,13,16,26,25.90
2016,09,13,16,27,25.80
2016,09,13,16,28,25.70
2016,09,13,16,29,25.60
2016,09,13,16,30,25.60
2016,09,13,16,31,25.60
2016,09,13,16,32,25.60
2016,09,13,16,33,25.60
2016,09,13,16,34,25.60
2016,09,13,16,35,25.50
2016,09,13,16,36,25.50
2016,09,13,16,37,25.40
2016,09,13,16,38,25.40
2016,09,13,16,39,25.30
2016,09,13,16,40,25.30
2016,09,13,16,41,25.30
2016,09,13,16,42,25.30
2016,09,13,16,43,25.30
2016,09,13,16,44,25.30
2016,09,13,16,45,25.30
2016,09,13,16,46,25.30
2016,09,13,16,47,25.30
2016,09,13,16,48,25.30
2016,09,13,16,49,25.30
2016,09,13,16,50,25.30
2016,09,13,16,51,25.30
2016,09,13,16,52,25.30
2016,09,13,16,53,25.30
2016,09,13,16,54,25.40
2016,09,13,16,55,25.40
2016,09,13,16,56,25.40
2016,09,13,16,57,25.40
2016,09,13,16,58,25.50
2016,09,13,16,59,25.50
2016,09,13,17,00,25.50
2016,09,13,17,01,25.60
2016,09,13,17,02,25.60
2016,09,13,17,03,25.50
2016,09,13,17,04,25.50
2016,09,13,17,05,25.50
2016,09,13,17,06,25.50
2016,09,13,17,07,25.50
2016,09,13,17,08,25.40
2016,09,13,17,09,25.40
2016,09,13,17,10,25.40
2016,09,13,17,11,25.40
2016,09,13,17,12,25.30
2016,09,13,17,13,25.30
2016,09,13,17,14,25.30
2016,09,13,17,15,25.30
2016,09,13,17,16,25.20
2016,09,13,17,17,25.10
2016,09,13,17,18,25.10
2016,09,13,17,19,25.10
2016,09,13,17,20,25.10
2016,09,13,17,21,25.00
2016,09,13,17,22,25.00
2016,09,13,17,23,25.00
2016,09,13,17,24,25.00
2016,09,13,17,25,25.00
2016,09,13,17,26,25.00
2016,09,13,17,27,25.00
2016,09,13,17,28,24.90
2016,09,13,17,29,24.90
2016,09,13,17,30,24.90
2016,09,13,17,31,24.90
2016,09,13,17,32,24.80
2016,09,13,17,33,24.80
2016,09,13,17,34,24.80
2016,09,13,17,35,24.80
2016,09,13,17,36,24.70